Time,TemperatureF,DewpointF,PressureIn,WindDirection,WindDirectionDegrees,WindSpeedMPH,WindSpeedGustMPH,Humidity,HourlyPrecipIn,Conditions,Clouds,dailyrainin,SoftwareType,DateUTC
2013-03-03 00:00:00,47.3,24.2,29.87,West,278,11.9,11.9,40,0.00,,SCT100,0.00,VWS V14.01,2013-03-03 08:00:00,
2013-03-03 00:05:00,47.5,24.4,29.87,West,278,8.3,11.9,40,0.00,,BKN100,0.00,VWS V14.01,2013-03-03 08:05:00,
2013-03-03 00:10:00,47.3,24.2,29.87,West,269,8.3,8.3,40,0.00,,BKN100,0.00,VWS V14.01,2013-03-03 08:10:00,
2013-03-03 00:15:00,47.1,24.1,29.87,West,259,5.8,6.3,40,0.00,,BKN100,0.00,VWS V14.01,2013-03-03 08:15:00,
2013-03-03 00:20:00,46.9,23.9,29.87,West,273,6.7,6.7,40,0.00,,BKN100,0.00,VWS V14.01,2013-03-03 08:20:00,
2013-03-03 00:25:00,46.8,23.1,29.84,West,266,5.8,5.8,39,0.00,,BKN100,0.00,VWS V14.01,2013-03-03 08:25:00,
2013-03-03 00:30:00,46.4,23.4,29.84,WNW,285,7.6,8.1,40,0.00,,BKN100,0.00,VWS V14.01,2013-03-03 08:30:00,
2013-03-03 00:35:00,46.0,23.1,29.84,West,270,3.6,5.4,40,0.00,,BKN100,0.00,VWS V14.01,2013-03-03 08:35:00,
2013-03-03 00:40:00,45.9,22.9,29.87,WSW,241,4.0,5.4,40,0.00,,BKN100,0.00,VWS V14.01,2013-03-03 08:40:00,
2013-03-03 00:45:00,45.9,22.3,29.87,WSW,250,10.5,10.5,39,0.00,,BKN100,0.00,VWS V14.01,2013-03-03 08:45:00,
2013-03-03 00:50:00,45.9,22.3,29.87,WSW,251,8.1,10.5,39,0.00,,BKN100,0.00,VWS V14.01,2013-03-03 08:50:00,
2013-03-03 00:55:00,45.7,21.5,29.87,WNW,290,5.8,5.8,38,0.00,,BKN100,0.00,VWS V14.01,2013-03-03 08:55:00,
2013-03-03 01:00:00,45.3,20.6,29.87,WNW,297,15.4,15.4,37,0.00,,BKN100,0.00,VWS V14.01,2013-03-03 09:00:00,
2013-03-03 01:05:00,45.3,19.3,29.87,West,273,7.6,8.1,35,0.00,,OVC100,0.00,VWS V14.01,2013-03-03 09:05:00,
2013-03-03 01:10:00,44.6,18.0,29.87,WNW,285,3.1,3.1,34,0.00,,OVC100,0.00,VWS V14.01,2013-03-03 09:10:00,
2013-03-03 01:15:00,44.1,16.8,29.87,WNW,300,2.7,4.9,33,0.00,,OVC100,0.00,VWS V14.01,2013-03-03 09:15:00,
2013-03-03 01:20:00,43.7,16.5,29.87,WNW,300,3.6,6.3,33,0.00,,OVC100,0.00,VWS V14.01,2013-03-03 09:20:00,
2013-03-03 01:25:00,43.5,16.3,29.87,West,272,12.8,12.8,33,0.00,,OVC100,0.00,VWS V14.01,2013-03-03 09:25:00,
2013-03-03 01:30:00,43.5,15.6,29.87,WNW,289,10.1,11.0,32,0.00,,OVC100,0.00,VWS V14.01,2013-03-03 09:30:00,
2013-03-03 01:35:00,43.2,14.6,29.87,WNW,299,7.6,7.6,31,0.00,,OVC100,0.00,VWS V14.01,2013-03-03 09:35:00,
2013-03-03 01:40:00,42.8,14.3,29.87,West,272,3.6,6.3,31,0.00,,OVC100,0.00,VWS V14.01,2013-03-03 09:40:00,
2013-03-03 01:45:00,42.4,14.0,29.87,West,273,3.6,5.8,31,0.00,,OVC100,0.00,VWS V14.01,2013-03-03 09:45:00,
2013-03-03 01:50:00,42.3,13.1,29.87,WSW,244,8.3,8.3,30,0.00,,OVC100,0.00,VWS V14.01,2013-03-03 09:50:00,
2013-03-03 01:55:00,41.7,12.6,29.87,West,274,5.8,8.7,30,0.00,,OVC100,0.00,VWS V14.01,2013-03-03 09:55:00,
2013-03-03 02:00:00,41.2,12.1,29.87,NW,311,3.6,15.4,30,0.00,,OVC100,0.00,VWS V14.01,2013-03-03 10:00:00,
2013-03-03 02:05:00,40.6,11.6,29.87,NW,308,4.9,8.1,30,0.00,,FEW100,0.00,VWS V14.01,2013-03-03 10:05:00,
2013-03-03 02:10:00,39.9,11.0,29.87,NW,325,5.4,6.3,30,0.00,,FEW100,0.00,VWS V14.01,2013-03-03 10:10:00,
2013-03-03 02:15:00,39.6,10.7,29.87,NNW,331,5.8,5.8,30,0.00,,FEW100,0.00,VWS V14.01,2013-03-03 10:15:00,
2013-03-03 02:20:00,39.0,11.0,29.87,WNW,296,2.2,4.0,31,0.00,,FEW100,0.00,VWS V14.01,2013-03-03 10:20:00,
2013-03-03 02:25:00,39.0,11.0,29.87,West,271,4.9,7.6,31,0.00,,FEW100,0.00,VWS V14.01,2013-03-03 10:25:00,
2013-03-03 02:30:00,38.8,10.8,29.87,WNW,291,5.8,5.8,31,0.00,,FEW100,0.00,VWS V14.01,2013-03-03 10:30:00,
2013-03-03 02:35:00,38.5,10.5,29.87,WNW,300,5.4,11.9,31,0.00,,FEW100,0.00,VWS V14.01,2013-03-03 10:35:00,
2013-03-03 02:40:00,38.3,10.3,29.87,West,277,8.3,8.3,31,0.00,,FEW100,0.00,VWS V14.01,2013-03-03 10:40:00,
2013-03-03 02:45:00,37.9,10.0,29.87,West,270,10.1,10.1,31,0.00,,FEW100,0.00,VWS V14.01,2013-03-03 10:45:00,
2013-03-03 02:50:00,37.6,9.7,29.87,WNW,284,4.0,6.3,31,0.00,,FEW100,0.00,VWS V14.01,2013-03-03 10:50:00,
2013-03-03 02:55:00,37.2,10.1,29.87,WNW,295,4.0,7.6,32,0.00,,FEW100,0.00,VWS V14.01,2013-03-03 10:55:00,
2013-03-03 03:00:00,37.2,10.1,29.87,NW,315,6.3,6.3,32,0.00,,FEW100,0.00,VWS V14.01,2013-03-03 11:00:00,
2013-03-03 03:05:00,37.0,9.9,29.87,WSW,253,7.6,8.1,32,0.00,,FEW030,0.00,VWS V14.01,2013-03-03 11:05:00,
2013-03-03 03:10:00,36.9,9.8,29.87,West,274,7.6,7.6,32,0.00,,FEW030,0.00,VWS V14.01,2013-03-03 11:10:00,
2013-03-03 03:15:00,36.7,9.6,29.87,WSW,241,13.2,13.2,32,0.00,,FEW030,0.00,VWS V14.01,2013-03-03 11:15:00,
2013-03-03 03:20:00,36.7,9.6,29.87,NNW,332,4.9,8.7,32,0.00,,FEW030,0.00,VWS V14.01,2013-03-03 11:20:00,
2013-03-03 03:25:00,36.7,9.6,29.87,West,278,6.3,8.7,32,0.00,,FEW030,0.00,VWS V14.01,2013-03-03 11:25:00,
2013-03-03 03:30:00,36.7,9.6,29.87,West,272,8.1,14.5,32,0.00,,FEW030,0.00,VWS V14.01,2013-03-03 11:30:00,
2013-03-03 03:35:00,36.7,9.6,29.87,WNW,286,2.7,5.4,32,0.00,,FEW030,0.00,VWS V14.01,2013-03-03 11:35:00,
2013-03-03 03:40:00,36.5,9.5,29.87,West,280,5.4,5.8,32,0.00,,FEW030,0.00,VWS V14.01,2013-03-03 11:40:00,
2013-03-03 03:45:00,36.3,9.3,29.87,West,274,6.3,6.3,32,0.00,,FEW030,0.00,VWS V14.01,2013-03-03 11:45:00,
2013-03-03 03:50:00,36.3,8.6,29.87,NW,322,4.9,7.6,31,0.00,,FEW030,0.00,VWS V14.01,2013-03-03 11:50:00,
2013-03-03 03:55:00,36.3,8.6,29.90,WNW,301,3.1,5.8,31,0.00,,FEW030,0.00,VWS V14.01,2013-03-03 11:55:00,
2013-03-03 04:00:00,36.3,8.6,29.90,WNW,283,4.0,4.9,31,0.00,,FEW030,0.00,VWS V14.01,2013-03-03 12:00:00,
2013-03-03 04:05:00,36.0,8.3,29.90,West,262,8.7,8.7,31,0.00,,FEW040,0.00,VWS V14.01,2013-03-03 12:05:00,
2013-03-03 04:10:00,36.0,8.3,29.90,NW,326,6.3,6.3,31,0.00,,FEW040,0.00,VWS V14.01,2013-03-03 12:10:00,
2013-03-03 04:15:00,36.0,8.3,29.90,NNW,328,4.5,8.3,31,0.00,,FEW040,0.00,VWS V14.01,2013-03-03 12:15:00,
2013-03-03 04:20:00,36.1,8.4,29.90,West,270,7.2,7.2,31,0.00,,FEW040,0.00,VWS V14.01,2013-03-03 12:20:00,
2013-03-03 04:25:00,35.8,8.1,29.90,NW,312,5.4,5.4,31,0.00,,FEW040,0.00,VWS V14.01,2013-03-03 12:25:00,
2013-03-03 04:30:00,35.6,8.0,29.90,NW,306,6.3,11.0,31,0.00,,FEW040,0.00,VWS V14.01,2013-03-03 12:30:00,
2013-03-03 04:35:00,35.4,8.5,29.90,NW,314,3.6,6.3,32,0.00,,FEW040,0.00,VWS V14.01,2013-03-03 12:35:00,
2013-03-03 04:40:00,35.2,8.4,29.90,NW,316,2.7,2.7,32,0.00,,FEW040,0.00,VWS V14.01,2013-03-03 12:40:00,
2013-03-03 04:45:00,35.2,8.4,29.90,WNW,285,4.9,4.9,32,0.00,,FEW040,0.00,VWS V14.01,2013-03-03 12:45:00,
2013-03-03 04:50:00,35.4,8.5,29.90,WNW,286,5.4,5.4,32,0.00,,FEW040,0.00,VWS V14.01,2013-03-03 12:50:00,
2013-03-03 04:55:00,35.2,8.4,29.93,WNW,288,5.4,8.7,32,0.00,,FEW040,0.00,VWS V14.01,2013-03-03 12:55:00,
2013-03-03 05:00:00,35.1,8.2,29.93,West,274,5.4,8.3,32,0.00,,FEW040,0.00,VWS V14.01,2013-03-03 13:00:00,
2013-03-03 05:05:00,34.5,7.7,29.93,WNW,287,6.7,6.7,32,0.00,,SCT065,0.00,VWS V14.01,2013-03-03 13:05:00,
2013-03-03 05:10:00,34.2,7.4,29.90,West,266,8.7,12.8,32,0.00,,SCT065,0.00,VWS V14.01,2013-03-03 13:10:00,
2013-03-03 05:15:00,34.0,7.2,29.90,West,272,7.6,8.7,32,0.00,,SCT065,0.00,VWS V14.01,2013-03-03 13:15:00,
2013-03-03 05:20:00,33.8,7.1,29.90,WNW,283,5.8,6.7,32,0.00,,SCT065,0.00,VWS V14.01,2013-03-03 13:20:00,
2013-03-03 05:25:00,33.8,7.1,29.93,West,268,6.3,8.7,32,0.00,,SCT065,0.00,VWS V14.01,2013-03-03 13:25:00,
2013-03-03 05:30:00,33.6,6.9,29.93,West,268,4.9,8.3,32,0.00,,SCT065,0.00,VWS V14.01,2013-03-03 13:30:00,
2013-03-03 05:35:00,33.4,6.8,29.93,WNW,283,8.3,8.3,32,0.00,,SCT065,0.00,VWS V14.01,2013-03-03 13:35:00,
2013-03-03 05:40:00,33.3,7.3,29.93,WNW,291,6.7,6.7,33,0.00,,SCT065,0.00,VWS V14.01,2013-03-03 13:40:00,
2013-03-03 05:45:00,33.3,7.3,29.93,NW,318,6.3,6.3,33,0.00,,SCT065,0.00,VWS V14.01,2013-03-03 13:45:00,
2013-03-03 05:50:00,33.3,7.3,29.93,West,265,12.3,12.3,33,0.00,,SCT065,0.00,VWS V14.01,2013-03-03 13:50:00,
2013-03-03 05:55:00,33.3,7.3,29.93,West,268,6.3,6.3,33,0.00,,SCT065,0.00,VWS V14.01,2013-03-03 13:55:00,
2013-03-03 06:00:00,33.4,7.4,29.93,WNW,294,2.7,4.0,33,0.00,,SCT065,0.00,VWS V14.01,2013-03-03 14:00:00,
2013-03-03 06:05:00,33.6,7.6,29.93,West,279,5.8,5.8,33,0.00,,SCT075,0.00,VWS V14.01,2013-03-03 14:05:00,
2013-03-03 06:10:00,33.8,7.1,29.93,WSW,258,4.0,6.3,32,0.00,,SCT075,0.00,VWS V14.01,2013-03-03 14:10:00,
2013-03-03 06:15:00,33.8,7.1,29.93,NW,312,4.0,5.8,32,0.00,,SCT075,0.00,VWS V14.01,2013-03-03 14:15:00,
2013-03-03 06:20:00,33.8,7.1,29.93,SW,232,7.2,7.2,32,0.00,,SCT075,0.00,VWS V14.01,2013-03-03 14:20:00,
2013-03-03 06:25:00,34.0,7.2,29.93,NW,322,4.9,4.9,32,0.00,,SCT075,0.00,VWS V14.01,2013-03-03 14:25:00,
2013-03-03 06:30:00,34.0,7.2,29.93,West,272,4.0,5.8,32,0.00,,SCT075,0.00,VWS V14.01,2013-03-03 14:30:00,
2013-03-03 06:35:00,34.0,7.9,29.93,West,277,3.1,3.1,33,0.00,,SCT075,0.00,VWS V14.01,2013-03-03 14:35:00,
2013-03-03 06:40:00,34.0,7.9,29.93,WNW,294,3.1,6.3,33,0.00,,SCT075,0.00,VWS V14.01,2013-03-03 14:40:00,
2013-03-03 06:45:00,34.2,8.1,29.93,WNW,295,4.0,5.8,33,0.00,,SCT075,0.00,VWS V14.01,2013-03-03 14:45:00,
2013-03-03 06:50:00,34.2,8.1,29.93,NNW,342,3.1,6.3,33,0.00,,SCT075,0.00,VWS V14.01,2013-03-03 14:50:00,
2013-03-03 06:55:00,34.3,8.2,29.93,WNW,287,3.6,5.4,33,0.00,,SCT075,0.00,VWS V14.01,2013-03-03 14:55:00,
2013-03-03 07:00:00,34.5,8.4,29.93,West,269,3.1,4.0,33,0.00,,SCT075,0.00,VWS V14.01,2013-03-03 15:00:00,
2013-03-03 07:05:00,34.5,8.4,29.93,WNW,290,4.9,10.1,33,0.00,,BKN100,0.00,VWS V14.01,2013-03-03 15:05:00,
2013-03-03 07:10:00,34.7,7.9,29.93,WNW,300,4.9,8.3,32,0.00,,BKN100,0.00,VWS V14.01,2013-03-03 15:10:00,
2013-03-03 07:15:00,34.7,7.9,29.93,WNW,292,4.0,6.3,32,0.00,,BKN100,0.00,VWS V14.01,2013-03-03 15:15:00,
2013-03-03 07:20:00,34.7,7.9,29.93,West,263,5.8,5.8,32,0.00,,BKN100,0.00,VWS V14.01,2013-03-03 15:20:00,
2013-03-03 07:25:00,34.7,7.9,29.93,WNW,298,6.3,6.3,32,0.00,,BKN100,0.00,VWS V14.01,2013-03-03 15:25:00,
2013-03-03 07:30:00,34.7,7.9,29.93,West,264,5.8,8.3,32,0.00,,BKN100,0.00,VWS V14.01,2013-03-03 15:30:00,
2013-03-03 07:35:00,34.7,7.9,29.93,West,277,2.7,5.4,32,0.00,,BKN100,0.00,VWS V14.01,2013-03-03 15:35:00,
2013-03-03 07:40:00,34.7,7.9,29.93,NW,306,2.2,3.6,32,0.00,,BKN100,0.00,VWS V14.01,2013-03-03 15:40:00,
2013-03-03 07:45:00,35.4,9.2,29.93,WNW,288,2.7,2.7,33,0.00,,BKN100,0.00,VWS V14.01,2013-03-03 15:45:00,
2013-03-03 07:50:00,35.2,8.4,29.93,NW,305,3.6,5.4,32,0.00,,BKN100,0.00,VWS V14.01,2013-03-03 15:50:00,
2013-03-03 07:55:00,35.2,8.4,29.96,WNW,290,3.1,3.1,32,0.00,,BKN100,0.00,VWS V14.01,2013-03-03 15:55:00,
2013-03-03 08:00:00,34.9,8.0,29.96,WNW,302,5.8,8.1,32,0.00,,BKN100,0.00,VWS V14.01,2013-03-03 16:00:00,
2013-03-03 08:05:00,34.5,8.4,29.96,WNW,291,2.7,2.7,33,0.00,,BKN100,0.00,VWS V14.01,2013-03-03 16:05:00,
2013-03-03 08:10:00,34.9,8.7,29.96,WNW,287,5.8,5.8,33,0.00,,BKN100,0.00,VWS V14.01,2013-03-03 16:10:00,
2013-03-03 08:15:00,35.8,8.8,29.96,WNW,282,5.4,5.4,32,0.00,,BKN100,0.00,VWS V14.01,2013-03-03 16:15:00,
2013-03-03 08:20:00,36.7,9.6,29.96,WNW,287,2.7,2.7,32,0.00,,BKN100,0.00,VWS V14.01,2013-03-03 16:20:00,
2013-03-03 08:25:00,37.4,9.5,29.93,WNW,285,4.9,8.1,31,0.00,,BKN100,0.00,VWS V14.01,2013-03-03 16:25:00,
2013-03-03 08:30:00,38.3,10.3,29.93,West,271,4.9,5.8,31,0.00,,BKN100,0.00,VWS V14.01,2013-03-03 16:30:00,
2013-03-03 08:35:00,37.9,10.0,29.93,West,269,3.6,3.6,31,0.00,,BKN100,0.00,VWS V14.01,2013-03-03 16:35:00,
2013-03-03 08:40:00,37.6,9.7,29.96,WNW,285,5.8,7.6,31,0.00,,BKN100,0.00,VWS V14.01,2013-03-03 16:40:00,
2013-03-03 08:45:00,38.1,10.2,29.96,West,269,5.4,8.7,31,0.00,,BKN100,0.00,VWS V14.01,2013-03-03 16:45:00,
2013-03-03 08:50:00,39.6,11.4,29.96,West,275,5.8,8.7,31,0.00,,BKN100,0.00,VWS V14.01,2013-03-03 16:50:00,
2013-03-03 08:55:00,40.8,12.5,29.96,West,259,5.8,8.1,31,0.00,,BKN100,0.00,VWS V14.01,2013-03-03 16:55:00,
2013-03-03 09:00:00,41.7,12.6,29.96,NW,312,4.0,4.0,30,0.00,,BKN100,0.00,VWS V14.01,2013-03-03 17:00:00,
2013-03-03 09:05:00,41.5,11.7,29.96,NW,320,6.3,7.6,29,0.00,,BKN095,0.00,VWS V14.01,2013-03-03 17:05:00,
2013-03-03 09:10:00,41.7,11.8,29.96,West,277,5.8,8.7,29,0.00,,BKN095,0.00,VWS V14.01,2013-03-03 17:10:00,
2013-03-03 09:15:00,41.5,11.7,29.96,NW,323,6.3,6.3,29,0.00,,BKN095,0.00,VWS V14.01,2013-03-03 17:15:00,
2013-03-03 09:20:00,40.3,10.6,29.96,WNW,299,4.0,4.9,29,0.00,,BKN095,0.00,VWS V14.01,2013-03-03 17:20:00,
2013-03-03 09:25:00,39.9,10.2,29.96,WNW,298,2.7,3.1,29,0.00,,BKN095,0.00,VWS V14.01,2013-03-03 17:25:00,
2013-03-03 09:30:00,39.9,10.2,29.96,West,279,6.3,6.3,29,0.00,,BKN095,0.00,VWS V14.01,2013-03-03 17:30:00,
2013-03-03 09:35:00,39.7,10.1,29.96,West,267,5.4,5.4,29,0.00,,BKN095,0.00,VWS V14.01,2013-03-03 17:35:00,
2013-03-03 09:40:00,39.9,11.0,29.96,WSW,253,8.7,8.7,30,0.00,,BKN095,0.00,VWS V14.01,2013-03-03 17:40:00,
2013-03-03 09:45:00,39.9,10.2,29.96,WSW,255,4.0,4.9,29,0.00,,BKN095,0.00,VWS V14.01,2013-03-03 17:45:00,
2013-03-03 09:50:00,40.1,11.2,29.96,NW,319,4.0,4.0,30,0.00,,BKN095,0.00,VWS V14.01,2013-03-03 17:50:00,
2013-03-03 09:55:00,40.3,10.6,29.96,West,278,5.8,5.8,29,0.00,,BKN095,0.00,VWS V14.01,2013-03-03 17:55:00,
2013-03-03 10:00:00,40.5,11.5,29.96,West,269,5.8,6.3,30,0.00,,BKN095,0.00,VWS V14.01,2013-03-03 18:00:00,
2013-03-03 10:05:00,40.6,10.9,29.96,NW,305,3.6,3.6,29,0.00,,BKN130,0.00,VWS V14.01,2013-03-03 18:05:00,
2013-03-03 10:10:00,41.0,11.2,29.96,WNW,283,3.6,5.8,29,0.00,,BKN130,0.00,VWS V14.01,2013-03-03 18:10:00,
2013-03-03 10:15:00,41.2,11.4,29.96,NW,314,3.6,4.0,29,0.00,,BKN130,0.00,VWS V14.01,2013-03-03 18:15:00,
2013-03-03 10:20:00,41.7,11.8,29.96,West,271,10.1,10.1,29,0.00,,BKN130,0.00,VWS V14.01,2013-03-03 18:20:00,
2013-03-03 10:25:00,42.1,12.1,29.96,WNW,295,3.6,4.0,29,0.00,,BKN130,0.00,VWS V14.01,2013-03-03 18:25:00,
2013-03-03 10:30:00,41.9,12.0,29.96,West,277,8.3,8.3,29,0.00,,BKN130,0.00,VWS V14.01,2013-03-03 18:30:00,
2013-03-03 10:35:00,41.7,11.8,29.96,NW,306,4.0,4.0,29,0.00,,BKN130,0.00,VWS V14.01,2013-03-03 18:35:00,
2013-03-03 10:40:00,41.5,11.7,29.96,West,268,8.3,8.3,29,0.00,,BKN130,0.00,VWS V14.01,2013-03-03 18:40:00,
2013-03-03 10:45:00,42.1,12.1,29.96,WNW,293,9.6,9.6,29,0.00,,BKN130,0.00,VWS V14.01,2013-03-03 18:45:00,
2013-03-03 10:50:00,42.4,12.4,29.96,WNW,292,6.3,6.3,29,0.00,,BKN130,0.00,VWS V14.01,2013-03-03 18:50:00,
2013-03-03 10:55:00,42.3,12.3,29.96,WSW,254,3.6,3.6,29,0.00,,BKN130,0.00,VWS V14.01,2013-03-03 18:55:00,
2013-03-03 11:00:00,42.3,12.3,29.96,NNW,331,3.1,4.9,29,0.00,,BKN130,0.00,VWS V14.01,2013-03-03 19:00:00,
2013-03-03 11:05:00,42.3,12.3,29.96,NW,311,4.0,8.3,29,0.00,,BKN140,0.00,VWS V14.01,2013-03-03 19:05:00,
2013-03-03 11:10:00,42.3,11.5,29.96,WNW,284,5.8,5.8,28,0.00,,BKN140,0.00,VWS V14.01,2013-03-03 19:10:00,
2013-03-03 11:15:00,42.8,12.0,29.96,WNW,303,5.4,5.4,28,0.00,,BKN140,0.00,VWS V14.01,2013-03-03 19:15:00,
2013-03-03 11:20:00,43.0,12.1,29.96,WSW,244,3.6,4.0,28,0.00,,BKN140,0.00,VWS V14.01,2013-03-03 19:20:00,
2013-03-03 11:25:00,43.0,12.1,29.96,West,264,8.1,8.1,28,0.00,,BKN140,0.00,VWS V14.01,2013-03-03 19:25:00,
2013-03-03 11:30:00,43.0,12.1,29.96,WNW,294,4.0,4.0,28,0.00,,BKN140,0.00,VWS V14.01,2013-03-03 19:30:00,
2013-03-03 11:35:00,43.0,12.1,29.96,West,277,3.6,8.7,28,0.00,,BKN140,0.00,VWS V14.01,2013-03-03 19:35:00,
2013-03-03 11:40:00,42.8,12.0,29.96,WSW,244,7.6,7.6,28,0.00,,BKN140,0.00,VWS V14.01,2013-03-03 19:40:00,
2013-03-03 11:45:00,42.3,11.5,29.96,NW,309,5.4,8.1,28,0.00,,BKN140,0.00,VWS V14.01,2013-03-03 19:45:00,
2013-03-03 11:50:00,42.8,12.0,29.96,WSW,242,3.6,10.1,28,0.00,,BKN140,0.00,VWS V14.01,2013-03-03 19:50:00,
2013-03-03 11:55:00,42.8,12.0,29.96,WSW,258,7.2,10.1,28,0.00,,BKN140,0.00,VWS V14.01,2013-03-03 19:55:00,
2013-03-03 12:00:00,42.3,11.5,29.96,West,265,6.3,10.5,28,0.00,,BKN140,0.00,VWS V14.01,2013-03-03 20:00:00,
2013-03-03 12:05:00,42.8,12.0,29.96,NW,325,3.1,5.4,28,0.00,,BKN110,0.00,VWS V14.01,2013-03-03 20:05:00,
2013-03-03 12:10:00,43.3,12.4,29.99,West,259,8.1,8.1,28,0.00,,BKN110,0.00,VWS V14.01,2013-03-03 20:10:00,
2013-03-03 12:15:00,44.2,13.2,29.99,West,266,7.6,13.6,28,0.00,,BKN110,0.00,VWS V14.01,2013-03-03 20:15:00,
2013-03-03 12:20:00,44.6,11.0,29.99,West,275,5.8,13.2,25,0.00,,BKN110,0.00,VWS V14.01,2013-03-03 20:20:00,
2013-03-03 12:25:00,44.8,11.1,29.96,NW,325,4.5,4.5,25,0.00,,BKN110,0.00,VWS V14.01,2013-03-03 20:25:00,
2013-03-03 12:30:00,45.0,11.3,29.96,NNW,346,10.5,10.5,25,0.00,,BKN110,0.00,VWS V14.01,2013-03-03 20:30:00,
2013-03-03 12:35:00,44.8,11.1,29.96,WNW,291,8.7,8.7,25,0.00,,BKN110,0.00,VWS V14.01,2013-03-03 20:35:00,
2013-03-03 12:40:00,44.6,11.0,29.99,NW,321,10.5,12.3,25,0.00,,BKN110,0.00,VWS V14.01,2013-03-03 20:40:00,
2013-03-03 12:45:00,44.6,11.0,29.99,NNW,338,8.7,8.7,25,0.00,,BKN110,0.00,VWS V14.01,2013-03-03 20:45:00,
2013-03-03 12:50:00,44.6,11.0,29.99,WSW,253,10.5,10.5,25,0.00,,BKN110,0.00,VWS V14.01,2013-03-03 20:50:00,
2013-03-03 12:55:00,44.2,10.7,29.99,WSW,252,7.6,10.1,25,0.00,,BKN110,0.00,VWS V14.01,2013-03-03 20:55:00,
2013-03-03 13:00:00,43.5,10.0,29.99,West,262,5.8,11.0,25,0.00,,BKN110,0.00,VWS V14.01,2013-03-03 21:00:00,
2013-03-03 13:05:00,43.9,10.4,29.99,WNW,298,4.9,4.9,25,0.00,,BKN150,0.00,VWS V14.01,2013-03-03 21:05:00,
2013-03-03 13:10:00,44.1,10.5,29.99,West,265,7.6,12.8,25,0.00,,BKN150,0.00,VWS V14.01,2013-03-03 21:10:00,
2013-03-03 13:15:00,44.2,10.7,29.99,NW,319,3.1,8.3,25,0.00,,BKN150,0.00,VWS V14.01,2013-03-03 21:15:00,
2013-03-03 13:19:00,43.5,10.0,29.99,NNW,340,7.6,12.3,25,0.00,,BKN150,0.00,VWS V14.01,2013-03-03 21:19:00,
2013-03-03 13:24:00,43.5,10.0,29.99,NW,319,8.1,10.1,25,0.00,,BKN150,0.00,VWS V14.01,2013-03-03 21:24:00,
2013-03-03 13:29:00,43.0,9.6,29.99,NW,312,2.7,4.0,25,0.00,,BKN150,0.00,VWS V14.01,2013-03-03 21:29:00,
2013-03-03 13:34:00,43.2,9.7,29.99,NW,310,3.6,8.3,25,0.00,,BKN150,0.00,VWS V14.01,2013-03-03 21:34:00,
2013-03-03 13:39:00,43.7,10.2,29.99,West,274,4.0,8.7,25,0.00,,BKN150,0.00,VWS V14.01,2013-03-03 21:39:00,
2013-03-03 13:44:00,44.1,10.5,29.99,WNW,303,2.7,5.4,25,0.00,,BKN150,0.00,VWS V14.01,2013-03-03 21:44:00,
2013-03-03 13:49:00,44.2,10.7,29.99,NNW,327,6.7,6.7,25,0.00,,BKN150,0.00,VWS V14.01,2013-03-03 21:49:00,
2013-03-03 13:54:00,44.2,10.7,29.99,WSW,238,4.0,6.3,25,0.00,,BKN150,0.00,VWS V14.01,2013-03-03 21:54:00,
2013-03-03 13:59:00,44.2,10.7,29.99,WNW,294,8.1,12.8,25,0.00,,BKN150,0.00,VWS V14.01,2013-03-03 21:59:00,
2013-03-03 14:04:00,44.8,11.1,29.99,West,281,2.7,6.3,25,0.00,,BKN140,0.00,VWS V14.01,2013-03-03 22:04:00,
2013-03-03 14:09:00,45.1,11.4,29.99,West,278,5.8,7.6,25,0.00,,BKN140,0.00,VWS V14.01,2013-03-03 22:09:00,
2013-03-03 14:14:00,45.3,11.6,29.99,West,266,8.1,8.1,25,0.00,,BKN140,0.00,VWS V14.01,2013-03-03 22:14:00,
2013-03-03 14:19:00,45.3,11.6,29.99,NW,305,6.3,8.3,25,0.00,,BKN140,0.00,VWS V14.01,2013-03-03 22:19:00,
2013-03-03 14:24:00,45.3,11.6,29.99,NNW,330,7.2,7.2,25,0.00,,BKN140,0.00,VWS V14.01,2013-03-03 22:24:00,
2013-03-03 14:29:00,45.1,11.4,29.99,West,272,8.7,8.7,25,0.00,,BKN140,0.00,VWS V14.01,2013-03-03 22:29:00,
2013-03-03 14:34:00,44.8,11.1,29.99,WSW,248,5.4,5.8,25,0.00,,BKN140,0.00,VWS V14.01,2013-03-03 22:34:00,
2013-03-03 14:39:00,44.8,11.1,29.99,West,263,3.1,6.7,25,0.00,,BKN140,0.00,VWS V14.01,2013-03-03 22:39:00,
2013-03-03 14:44:00,44.6,11.0,29.99,West,280,6.3,11.0,25,0.00,,BKN140,0.00,VWS V14.01,2013-03-03 22:44:00,
2013-03-03 14:49:00,45.0,11.3,29.99,WSW,251,15.4,15.4,25,0.00,,BKN140,0.00,VWS V14.01,2013-03-03 22:49:00,
2013-03-03 14:54:00,45.1,11.4,29.99,West,275,5.8,8.3,25,0.00,,BKN140,0.00,VWS V14.01,2013-03-03 22:54:00,
2013-03-03 14:59:00,44.6,11.0,29.99,WSW,256,7.6,12.8,25,0.00,,BKN140,0.00,VWS V14.01,2013-03-03 22:59:00,
2013-03-03 15:04:00,44.8,11.1,29.99,West,278,15.4,15.4,25,0.00,,BKN140,0.00,VWS V14.01,2013-03-03 23:04:00,
2013-03-03 15:09:00,44.8,11.1,29.99,WNW,286,11.0,11.0,25,0.00,,BKN140,0.00,VWS V14.01,2013-03-03 23:09:00,
2013-03-03 15:14:00,44.6,11.0,29.99,West,280,3.6,8.3,25,0.00,,BKN140,0.00,VWS V14.01,2013-03-03 23:14:00,
2013-03-03 15:19:00,44.4,10.8,29.99,WSW,252,10.1,12.8,25,0.00,,BKN140,0.00,VWS V14.01,2013-03-03 23:19:00,
2013-03-03 15:24:00,44.6,11.0,29.99,West,274,8.7,8.7,25,0.00,,BKN140,0.00,VWS V14.01,2013-03-03 23:24:00,
2013-03-03 15:29:00,44.6,11.0,29.99,NW,311,6.3,7.6,25,0.00,,BKN140,0.00,VWS V14.01,2013-03-03 23:29:00,
2013-03-03 15:34:00,44.2,8.8,29.99,NNW,341,5.8,10.1,23,0.00,,BKN140,0.00,VWS V14.01,2013-03-03 23:34:00,
2013-03-03 15:39:00,44.1,10.5,29.99,WNW,286,5.4,8.1,25,0.00,,BKN140,0.00,VWS V14.01,2013-03-03 23:39:00,
2013-03-03 15:44:00,44.1,10.5,29.99,West,279,4.0,6.3,25,0.00,,BKN140,0.00,VWS V14.01,2013-03-03 23:44:00,
2013-03-03 15:49:00,43.9,8.5,29.99,WSW,257,4.0,5.8,23,0.00,,BKN140,0.00,VWS V14.01,2013-03-03 23:49:00,
2013-03-03 15:54:00,43.7,10.2,29.99,West,265,8.7,8.7,25,0.00,,BKN140,0.00,VWS V14.01,2013-03-03 23:54:00,
2013-03-03 15:59:00,43.7,8.3,29.99,NNW,327,10.1,10.1,23,0.00,,BKN140,0.00,VWS V14.01,2013-03-03 23:59:00,
2013-03-03 16:04:00,43.7,8.3,29.99,NW,309,5.4,5.4,23,0.00,,SCT140,0.00,VWS V14.01,2013-03-04 00:04:00,
2013-03-03 16:09:00,43.7,10.2,29.99,West,279,7.6,7.6,25,0.00,,SCT140,0.00,VWS V14.01,2013-03-04 00:09:00,
2013-03-03 16:14:00,43.9,8.5,29.99,West,259,3.6,7.6,23,0.00,,SCT140,0.00,VWS V14.01,2013-03-04 00:14:00,
2013-03-03 16:19:00,44.4,8.9,29.99,West,266,3.6,4.0,23,0.00,,SCT140,0.00,VWS V14.01,2013-03-04 00:19:00,
2013-03-03 16:24:00,44.6,8.1,29.99,WNW,292,8.3,8.3,22,0.00,,SCT140,0.00,VWS V14.01,2013-03-04 00:24:00,
2013-03-03 16:29:00,44.4,8.9,29.99,WNW,296,3.1,4.9,23,0.00,,SCT140,0.00,VWS V14.01,2013-03-04 00:29:00,
2013-03-03 16:34:00,44.1,8.6,29.99,West,265,5.8,5.8,23,0.00,,SCT140,0.00,VWS V14.01,2013-03-04 00:34:00,
2013-03-03 16:39:00,43.7,8.3,29.99,West,263,3.1,4.0,23,0.00,,SCT140,0.00,VWS V14.01,2013-03-04 00:39:00,
2013-03-03 16:44:00,43.5,8.2,29.99,West,273,4.9,5.8,23,0.00,,SCT140,0.00,VWS V14.01,2013-03-04 00:44:00,
2013-03-03 16:49:00,43.3,8.0,29.99,NNW,342,6.3,6.3,23,0.00,,SCT140,0.00,VWS V14.01,2013-03-04 00:49:00,
2013-03-03 16:54:00,43.2,7.9,29.99,West,275,4.0,5.8,23,0.00,,SCT140,0.00,VWS V14.01,2013-03-04 00:54:00,
2013-03-03 16:59:00,43.3,8.0,29.99,West,271,2.7,5.4,23,0.00,,SCT140,0.00,VWS V14.01,2013-03-04 00:59:00,
2013-03-03 17:04:00,43.3,9.9,29.99,WNW,285,4.0,4.0,25,0.00,,SCT140,0.00,VWS V14.01,2013-03-04 01:04:00,
2013-03-03 17:09:00,43.2,7.9,30.02,West,266,5.4,5.4,23,0.00,,SCT140,0.00,VWS V14.01,2013-03-04 01:09:00,
2013-03-03 17:14:00,43.0,7.7,30.02,WNW,294,4.0,6.3,23,0.00,,SCT140,0.00,VWS V14.01,2013-03-04 01:14:00,
2013-03-03 17:19:00,42.8,7.6,30.02,West,271,3.6,6.3,23,0.00,,SCT140,0.00,VWS V14.01,2013-03-04 01:19:00,
2013-03-03 17:24:00,42.4,7.3,30.02,West,278,3.6,4.9,23,0.00,,SCT140,0.00,VWS V14.01,2013-03-04 01:24:00,
2013-03-03 17:29:00,42.3,7.1,30.02,West,281,2.7,3.1,23,0.00,,SCT140,0.00,VWS V14.01,2013-03-04 01:29:00,
2013-03-03 17:34:00,42.1,9.7,30.02,West,279,5.8,5.8,26,0.00,,SCT140,0.00,VWS V14.01,2013-03-04 01:34:00,
2013-03-03 17:39:00,41.9,9.5,30.02,West,262,8.7,8.7,26,0.00,,SCT140,0.00,VWS V14.01,2013-03-04 01:39:00,
2013-03-03 17:44:00,41.7,9.4,30.02,WNW,282,3.6,7.6,26,0.00,,SCT140,0.00,VWS V14.01,2013-03-04 01:44:00,
2013-03-03 17:49:00,41.5,9.2,30.02,West,278,0.0,0.0,26,0.00,,SCT140,0.00,VWS V14.01,2013-03-04 01:49:00,
2013-03-03 17:54:00,41.4,9.1,30.02,West,276,2.7,2.7,26,0.00,,SCT140,0.00,VWS V14.01,2013-03-04 01:54:00,
2013-03-03 17:59:00,41.2,8.9,30.02,West,272,3.1,3.1,26,0.00,,SCT140,0.00,VWS V14.01,2013-03-04 01:59:00,
2013-03-03 18:04:00,41.2,8.9,30.02,West,275,2.7,3.1,26,0.00,,BKN140,0.00,VWS V14.01,2013-03-04 02:04:00,
2013-03-03 18:09:00,41.0,8.8,30.02,West,261,3.6,3.6,26,0.00,,BKN140,0.00,VWS V14.01,2013-03-04 02:09:00,
2013-03-03 18:14:00,40.6,8.4,30.02,West,272,2.7,6.3,26,0.00,,BKN140,0.00,VWS V14.01,2013-03-04 02:14:00,
2013-03-03 18:19:00,40.6,8.4,30.02,WNW,285,2.7,2.7,26,0.00,,BKN140,0.00,VWS V14.01,2013-03-04 02:19:00,
2013-03-03 18:24:00,40.5,8.3,30.02,West,274,0.0,0.0,26,0.00,,BKN140,0.00,VWS V14.01,2013-03-04 02:24:00,
2013-03-03 18:29:00,40.5,8.3,30.02,West,274,2.2,2.2,26,0.00,,BKN140,0.00,VWS V14.01,2013-03-04 02:29:00,
2013-03-03 18:34:00,40.3,8.1,30.02,WNW,298,2.7,2.7,26,0.00,,BKN140,0.00,VWS V14.01,2013-03-04 02:34:00,
2013-03-03 18:39:00,40.1,8.0,30.05,WNW,300,2.7,2.7,26,0.00,,BKN140,0.00,VWS V14.01,2013-03-04 02:39:00,
2013-03-03 18:44:00,40.1,8.0,30.05,WNW,303,0.0,0.0,26,0.00,,BKN140,0.00,VWS V14.01,2013-03-04 02:44:00,
2013-03-03 18:49:00,39.7,7.7,30.05,WNW,303,0.0,0.0,26,0.00,,BKN140,0.00,VWS V14.01,2013-03-04 02:49:00,
2013-03-03 18:54:00,39.6,7.5,30.05,WNW,303,0.0,0.0,26,0.00,,BKN140,0.00,VWS V14.01,2013-03-04 02:54:00,
2013-03-03 18:59:00,39.2,7.2,30.05,WNW,300,0.0,0.0,26,0.00,,BKN140,0.00,VWS V14.01,2013-03-04 02:59:00,
2013-03-03 19:04:00,39.2,7.2,30.05,NW,306,0.0,0.0,26,0.00,,BKN140,0.00,VWS V14.01,2013-03-04 03:04:00,
2013-03-03 19:09:00,39.4,7.4,30.05,NW,322,3.1,3.1,26,0.00,,BKN140,0.00,VWS V14.01,2013-03-04 03:09:00,
2013-03-03 19:14:00,39.9,7.8,30.05,NNW,331,0.0,2.7,26,0.00,,BKN140,0.00,VWS V14.01,2013-03-04 03:14:00,
2013-03-03 19:19:00,40.3,8.1,30.05,NNW,327,5.4,5.4,26,0.00,,BKN140,0.00,VWS V14.01,2013-03-04 03:19:00,
2013-03-03 19:24:00,40.5,8.3,30.05,North,349,2.7,2.7,26,0.00,,BKN140,0.00,VWS V14.01,2013-03-04 03:24:00,
2013-03-03 19:29:00,40.5,8.3,30.05,North,353,3.6,4.0,26,0.00,,BKN140,0.00,VWS V14.01,2013-03-04 03:29:00,
2013-03-03 19:34:00,40.3,8.1,30.05,NNW,332,4.0,6.3,26,0.00,,BKN140,0.00,VWS V14.01,2013-03-04 03:34:00,
2013-03-03 19:39:00,40.3,8.1,30.05,NNE,19,0.0,0.0,26,0.00,,BKN140,0.00,VWS V14.01,2013-03-04 03:39:00,
2013-03-03 19:44:00,39.9,7.8,30.05,North,5,2.7,2.7,26,0.00,,BKN140,0.00,VWS V14.01,2013-03-04 03:44:00,
2013-03-03 19:49:00,39.6,7.5,30.05,NNE,12,3.1,3.1,26,0.00,,BKN140,0.00,VWS V14.01,2013-03-04 03:49:00,
2013-03-03 19:54:00,39.6,7.5,30.08,NNE,17,3.1,3.1,26,0.00,,BKN140,0.00,VWS V14.01,2013-03-04 03:54:00,
2013-03-03 19:59:00,39.4,7.4,30.08,NNE,17,0.0,0.0,26,0.00,,BKN140,0.00,VWS V14.01,2013-03-04 03:59:00,
2013-03-03 20:04:00,39.2,7.2,30.08,North,353,0.0,0.0,26,0.00,,BKN140,0.00,VWS V14.01,2013-03-04 04:04:00,
2013-03-03 20:09:00,39.2,7.2,30.08,NE,34,4.0,4.0,26,0.00,,BKN140,0.00,VWS V14.01,2013-03-04 04:09:00,
2013-03-03 20:14:00,39.0,7.1,30.08,NE,47,2.2,3.1,26,0.00,,BKN140,0.00,VWS V14.01,2013-03-04 04:14:00,
2013-03-03 20:19:00,39.0,7.1,30.08,NNW,330,2.7,2.7,26,0.00,,BKN140,0.00,VWS V14.01,2013-03-04 04:19:00,
2013-03-03 20:24:00,39.0,7.1,30.08,NNW,335,0.0,2.2,26,0.00,,BKN140,0.00,VWS V14.01,2013-03-04 04:24:00,
2013-03-03 20:29:00,38.8,6.9,30.08,NNW,327,0.0,0.0,26,0.00,,BKN140,0.00,VWS V14.01,2013-03-04 04:29:00,
2013-03-03 20:34:00,38.7,6.7,30.08,NNW,331,2.2,2.2,26,0.00,,BKN140,0.00,VWS V14.01,2013-03-04 04:34:00,
2013-03-03 20:39:00,38.7,6.7,30.08,NNW,340,0.0,0.0,26,0.00,,BKN140,0.00,VWS V14.01,2013-03-04 04:39:00,
2013-03-03 20:44:00,38.5,6.6,30.08,NNW,333,2.7,3.1,26,0.00,,BKN140,0.00,VWS V14.01,2013-03-04 04:44:00,
2013-03-03 20:49:00,38.5,6.6,30.08,NNW,331,4.0,4.0,26,0.00,,BKN140,0.00,VWS V14.01,2013-03-04 04:49:00,
2013-03-03 20:54:00,38.5,9.0,30.08,NNE,31,4.0,4.0,29,0.00,,BKN140,0.00,VWS V14.01,2013-03-04 04:54:00,
2013-03-03 20:59:00,38.3,8.8,30.08,NNE,30,2.7,4.9,29,0.00,,BKN140,0.00,VWS V14.01,2013-03-04 04:59:00,
2013-03-03 21:00:00,38.3,8.8,30.08,NE,37,2.7,2.7,29,0.00,,BKN140,0.00,VWS V14.01,2013-03-04 05:00:00,
2013-03-03 21:05:00,38.3,6.4,30.08,NNE,28,3.1,3.1,26,0.00,,OVC080,0.00,VWS V14.01,2013-03-04 05:05:00,
2013-03-03 21:10:00,38.1,8.7,30.08,NE,34,2.7,2.7,29,0.00,,OVC080,0.00,VWS V14.01,2013-03-04 05:10:00,
2013-03-03 21:15:00,38.1,8.7,30.08,NNE,23,3.1,3.6,29,0.00,,OVC080,0.00,VWS V14.01,2013-03-04 05:15:00,
2013-03-03 21:20:00,37.9,8.5,30.08,NNE,25,2.2,3.6,29,0.00,,OVC080,0.00,VWS V14.01,2013-03-04 05:20:00,
2013-03-03 21:25:00,37.6,8.2,30.08,NNE,25,0.0,0.0,29,0.00,,OVC080,0.00,VWS V14.01,2013-03-04 05:25:00,
2013-03-03 21:30:00,37.4,8.1,30.08,NNE,25,0.0,0.0,29,0.00,,OVC080,0.00,VWS V14.01,2013-03-04 05:30:00,
2013-03-03 21:35:00,37.2,7.9,30.08,North,5,0.0,0.0,29,0.00,,OVC080,0.00,VWS V14.01,2013-03-04 05:35:00,
2013-03-03 21:40:00,37.0,7.8,30.11,North,8,0.0,0.0,29,0.00,,OVC080,0.00,VWS V14.01,2013-03-04 05:40:00,
2013-03-03 21:45:00,37.0,8.5,30.11,North,8,0.0,0.0,30,0.00,,OVC080,0.00,VWS V14.01,2013-03-04 05:45:00,
2013-03-03 21:50:00,37.0,8.5,30.11,North,7,2.7,2.7,30,0.00,,OVC080,0.00,VWS V14.01,2013-03-04 05:50:00,
2013-03-03 21:55:00,37.0,8.5,30.11,North,7,0.0,0.0,30,0.00,,OVC080,0.00,VWS V14.01,2013-03-04 05:55:00,
2013-03-03 22:00:00,37.0,8.5,30.11,North,7,2.7,3.1,30,0.00,,OVC080,0.00,VWS V14.01,2013-03-04 06:00:00,
2013-03-03 22:05:00,36.9,8.3,30.11,North,7,2.2,3.1,30,0.00,,OVC080,0.00,VWS V14.01,2013-03-04 06:05:00,
2013-03-03 22:10:00,37.0,8.5,30.11,North,9,0.0,2.7,30,0.00,,OVC080,0.00,VWS V14.01,2013-03-04 06:10:00,
2013-03-03 22:15:00,37.0,8.5,30.11,NNE,12,0.0,2.7,30,0.00,,OVC080,0.00,VWS V14.01,2013-03-04 06:15:00,
2013-03-03 22:20:00,37.0,8.5,30.11,NNE,12,0.0,0.0,30,0.00,,OVC080,0.00,VWS V14.01,2013-03-04 06:20:00,
2013-03-03 22:25:00,36.9,8.3,30.11,NE,40,0.0,2.2,30,0.00,,OVC080,0.00,VWS V14.01,2013-03-04 06:25:00,
2013-03-03 22:30:00,36.1,7.7,30.11,NE,40,0.0,0.0,30,0.00,,OVC080,0.00,VWS V14.01,2013-03-04 06:30:00,
2013-03-03 22:35:00,35.4,7.1,30.11,NE,40,0.0,0.0,30,0.00,,OVC080,0.00,VWS V14.01,2013-03-04 06:35:00,
2013-03-03 22:40:00,34.3,6.1,30.11,NE,40,0.0,0.0,30,0.00,,OVC080,0.00,VWS V14.01,2013-03-04 06:40:00,
2013-03-03 22:45:00,33.6,6.2,30.11,NE,40,0.0,0.0,31,0.00,,OVC080,0.00,VWS V14.01,2013-03-04 06:45:00,
2013-03-03 22:50:00,33.3,5.9,30.11,NE,40,0.0,0.0,31,0.00,,OVC080,0.00,VWS V14.01,2013-03-04 06:50:00,
2013-03-03 22:55:00,32.7,6.1,30.11,NE,40,0.0,0.0,32,0.00,,OVC080,0.00,VWS V14.01,2013-03-04 06:55:00,
2013-03-03 23:00:00,32.4,5.8,30.11,NE,40,0.0,0.0,32,0.00,,OVC080,0.00,VWS V14.01,2013-03-04 07:00:00,
2013-03-03 23:05:00,32.0,6.2,30.11,NE,40,0.0,0.0,33,0.00,,BKN075,0.00,VWS V14.01,2013-03-04 07:05:00,
2013-03-03 23:10:00,31.3,6.2,30.11,NE,40,0.0,0.0,34,0.00,,BKN075,0.00,VWS V14.01,2013-03-04 07:10:00,
2013-03-03 23:15:00,31.8,8.5,30.11,NE,40,0.0,0.0,37,0.00,,BKN075,0.00,VWS V14.01,2013-03-04 07:15:00,
2013-03-03 23:20:00,31.6,8.4,30.11,NE,40,0.0,0.0,37,0.00,,BKN075,0.00,VWS V14.01,2013-03-04 07:20:00,
2013-03-03 23:25:00,31.3,8.6,30.11,NE,40,0.0,0.0,38,0.00,,BKN075,0.00,VWS V14.01,2013-03-04 07:25:00,
2013-03-03 23:30:00,31.1,9.6,30.11,NE,40,0.0,0.0,40,0.00,,BKN075,0.00,VWS V14.01,2013-03-04 07:30:00,
2013-03-03 23:35:00,31.1,9.6,30.11,NE,40,0.0,0.0,40,0.00,,BKN075,0.00,VWS V14.01,2013-03-04 07:35:00,
2013-03-03 23:40:00,31.1,10.2,30.11,NE,40,0.0,0.0,41,0.00,,BKN075,0.00,VWS V14.01,2013-03-04 07:40:00,
2013-03-03 23:45:00,30.9,10.0,30.11,NE,40,0.0,0.0,41,0.00,,BKN075,0.00,VWS V14.01,2013-03-04 07:45:00,
2013-03-03 23:50:00,30.4,9.5,30.11,NE,40,0.0,0.0,41,0.00,,BKN075,0.00,VWS V14.01,2013-03-04 07:50:00,
2013-03-03 23:55:00,29.5,9.2,30.14,NE,40,0.0,0.0,42,0.00,,BKN075,0.00,VWS V14.01,2013-03-04 07:55:00,